• In Deutschland
  • Länderverzeichnis
  • Für 7 Tage
  • Wassertemperatur
  • Satellitenkarten
  • Wetterkarte
  • Widgets
  • user-avatar
    Anmelden

    Stündliche Wetter Kozani

    Heute, 15 Dezember, Freitag

    Zeit Temperatur Niederschläge Wind Luftdruck Luftfeuchtigkeit
    00:00 +6°C° 0 mm 2 m/S 703 mmHg 79%
    01:00 +5°C° 0 mm 3 m/S 702 mmHg 80%
    02:00 +6°C° 0 mm 2 m/S 702 mmHg 80%
    03:00 +5°C° 0 mm 2 m/S 702 mmHg 81%
    04:00 +5°C° 0 mm 2 m/S 702 mmHg 82%
    05:00 +5°C° 0 mm 2 m/S 702 mmHg 83%
    06:00 +5°C° 0 mm 2 m/S 702 mmHg 84%
    07:00 +5°C° 0 mm 2 m/S 702 mmHg 84%
    08:00 +7°C° 0 mm 2 m/S 702 mmHg 79%
    09:00 +8°C° 0 mm 2 m/S 703 mmHg 74%
    10:00 +10°C° 0 mm 2 m/S 703 mmHg 69%
    11:00 +12°C° 0 mm 2 m/S 702 mmHg 66%
    12:00 +13°C° 0 mm 2 m/S 702 mmHg 64%
    13:00 +13°C° 0 mm 3 m/S 702 mmHg 61%
    14:00 +13°C° 0 mm 2 m/S 701 mmHg 65%
    15:00 +12°C° 0 mm 2 m/S 701 mmHg 69%
    16:00 +10°C° 0 mm 2 m/S 701 mmHg 73%
    17:00 +9°C° 0 mm 2 m/S 701 mmHg 75%
    18:00 +8°C° 0 mm 2 m/S 701 mmHg 78%
    19:00 +8°C° 0 mm 2 m/S 700 mmHg 80%
    20:00 +7°C° 0 mm 2 m/S 700 mmHg 82%
    21:00 +7°C° 0 mm 2 m/S 700 mmHg 83%
    22:00 +7°C° 0 mm 2 m/S 700 mmHg 85%
    23:00 +7°C° 0 mm 2 m/S 700 mmHg 86%

    Morgen, 16 Dezember, Samstag

    Zeit Temperatur Niederschläge Wind Luftdruck Luftfeuchtigkeit
    00:00 +7°C° 0 mm 2 m/S 700 mmHg 87%
    01:00 +7°C° 0 mm 2 m/S 699 mmHg 88%
    02:00 +7°C° 0 mm 2 m/S 699 mmHg 89%
    03:00 +7°C° 0 mm 2 m/S 699 mmHg 89%
    04:00 +7°C° 0 mm 3 m/S 699 mmHg 90%
    05:00 +5°C° 0 mm 3 m/S 698 mmHg 91%
    06:00 +6°C° 0 mm 2 m/S 698 mmHg 91%
    07:00 +6°C° 0 mm 2 m/S 698 mmHg 91%
    08:00 +8°C° 0 mm 3 m/S 698 mmHg 85%
    09:00 +9°C° 0 mm 3 m/S 698 mmHg 78%
    10:00 +11°C° 0 mm 3 m/S 698 mmHg 72%
    11:00 +11°C° 0 mm 3 m/S 698 mmHg 70%
    12:00 +11°C° 0 mm 3 m/S 698 mmHg 68%
    13:00 +12°C° 0 mm 3 m/S 697 mmHg 66%
    14:00 +11°C° 0,2 mm 3 m/S 697 mmHg 71%
    15:00 +10°C° 0,2 mm 2 m/S 697 mmHg 76%
    16:00 +10°C° 0,2 mm 2 m/S 697 mmHg 81%
    17:00 +9°C° 0,3 mm 2 m/S 697 mmHg 84%
    18:00 +10°C° 0,3 mm 1 m/S 697 mmHg 86%
    19:00 +9°C° 0,3 mm 1 m/S 697 mmHg 88%
    20:00 +9°C° 0,1 mm 1 m/S 697 mmHg 89%
    21:00 +9°C° 0,1 mm 1 m/S 697 mmHg 89%
    22:00 +8°C° 0,1 mm 1 m/S 697 mmHg 89%
    23:00 +7°C° 0 mm 2 m/S 697 mmHg 89%

    übermorgen, 17 Dezember, Sonntag

    Zeit Temperatur Niederschläge Wind Luftdruck Luftfeuchtigkeit
    00:00 +7°C° 0 mm 2 m/S 698 mmHg 88%
    01:00 +7°C° 0 mm 2 m/S 698 mmHg 87%
    02:00 +6°C° 0 mm 2 m/S 698 mmHg 86%
    03:00 +6°C° 0 mm 2 m/S 698 mmHg 85%
    04:00 +7°C° 0 mm 1 m/S 697 mmHg 84%
    05:00 +6°C° 0 mm 1 m/S 698 mmHg 84%
    06:00 +5°C° 0 mm 2 m/S 698 mmHg 83%
    07:00 +5°C° 0 mm 2 m/S 699 mmHg 82%
    08:00 +6°C° 0 mm 2 m/S 699 mmHg 75%
    09:00 +7°C° 0 mm 2 m/S 700 mmHg 69%
    10:00 +9°C° 0 mm 2 m/S 700 mmHg 62%
    11:00 +9°C° 0 mm 2 m/S 700 mmHg 57%
    12:00 +9°C° 0 mm 2 m/S 700 mmHg 52%
    13:00 +10°C° 0 mm 2 m/S 700 mmHg 48%
    14:00 +9°C° 0,1 mm 2 m/S 701 mmHg 52%
    15:00 +8°C° 0,1 mm 2 m/S 701 mmHg 56%
    16:00 +8°C° 0,1 mm 1 m/S 701 mmHg 60%
    17:00 +6°C° 0 mm 2 m/S 701 mmHg 64%
    18:00 +5°C° 0 mm 2 m/S 702 mmHg 67%
    19:00 +4°C° 0 mm 2 m/S 702 mmHg 70%
    20:00 +4°C° 0 mm 2 m/S 703 mmHg 72%
    21:00 +3°C° 0 mm 2 m/S 703 mmHg 75%
    22:00 +3°C° 0 mm 2 m/S 704 mmHg 77%
    23:00 +3°C° 0 mm 2 m/S 704 mmHg 78%

    18 Dezember, Montag

    Zeit Temperatur Niederschläge Wind Luftdruck Luftfeuchtigkeit
    00:00 +2°C° 0 mm 2 m/S 704 mmHg 79%
    01:00 +2°C° 0 mm 2 m/S 704 mmHg 80%
    02:00 +2°C° 0 mm 2 m/S 705 mmHg 81%
    03:00 +1°C° 0 mm 2 m/S 705 mmHg 81%
    04:00 +1°C° 0 mm 2 m/S 705 mmHg 81%
    05:00 +1°C° 0 mm 2 m/S 705 mmHg 82%
    06:00 -1°C° 0 mm 2 m/S 705 mmHg 82%
    07:00 -1°C° 0 mm 2 m/S 706 mmHg 82%
    08:00 0°C° 0 mm 3 m/S 706 mmHg 75%
    09:00 +1°C° 0 mm 3 m/S 707 mmHg 67%
    10:00 +2°C° 0 mm 3 m/S 707 mmHg 59%
    11:00 +2°C° 0 mm 3 m/S 707 mmHg 55%
    12:00 +2°C° 0 mm 3 m/S 707 mmHg 51%
    13:00 +3°C° 0 mm 3 m/S 706 mmHg 47%
    14:00 +2°C° 0 mm 3 m/S 706 mmHg 50%
    15:00 +1°C° 0 mm 3 m/S 706 mmHg 53%
    16:00 +2°C° 0 mm 2 m/S 706 mmHg 56%
    17:00 +1°C° 0 mm 2 m/S 707 mmHg 59%
    18:00 -1°C° 0 mm 2 m/S 707 mmHg 61%
    19:00 -1°C° 0 mm 2 m/S 708 mmHg 64%
    20:00 -2°C° 0 mm 2 m/S 708 mmHg 64%
    21:00 -2°C° 0 mm 2 m/S 709 mmHg 65%
    22:00 0°C° 0 mm 1 m/S 709 mmHg 65%
    23:00 0°C° 0 mm 1 m/S 709 mmHg 65%

    19 Dezember, Dienstag

    Zeit Temperatur Niederschläge Wind Luftdruck Luftfeuchtigkeit
    00:00 0°C° 0 mm 1 m/S 709 mmHg 65%
    01:00 0°C° 0 mm 1 m/S 709 mmHg 65%
    02:00 0°C° 0 mm 1 m/S 709 mmHg 64%
    03:00 0°C° 0 mm 1 m/S 709 mmHg 64%
    04:00 -1°C° 0 mm 1 m/S 710 mmHg 63%
    05:00 -1°C° 0 mm 1 m/S 710 mmHg 63%
    06:00 -1°C° 0 mm 1 m/S 710 mmHg 62%
    07:00 -1°C° 0 mm 1 m/S 711 mmHg 61%
    08:00 0°C° 0 mm 1 m/S 711 mmHg 55%
    09:00 +2°C° 0 mm 1 m/S 711 mmHg 48%
    10:00 +3°C° 0 mm 1 m/S 712 mmHg 41%
    11:00 +4°C° 0 mm 1 m/S 712 mmHg 39%
    12:00 +4°C° 0 mm 1 m/S 711 mmHg 37%
    13:00 +5°C° 0 mm 1 m/S 711 mmHg 35%
    14:00 +4°C° 0 mm 1 m/S 711 mmHg 39%
    15:00 +3°C° 0 mm 1 m/S 711 mmHg 43%
    16:00 +2°C° 0 mm 1 m/S 711 mmHg 47%
    17:00 +1°C° 0 mm 1 m/S 711 mmHg 49%
    18:00 +1°C° 0 mm 1 m/S 711 mmHg 51%
    19:00 +1°C° 0 mm 1 m/S 712 mmHg 52%
    20:00 0°C° 0 mm 1 m/S 712 mmHg 53%
    21:00 0°C° 0 mm 1 m/S 712 mmHg 54%
    22:00 0°C° 0 mm 1 m/S 712 mmHg 55%
    23:00 0°C° 0 mm 1 m/S 712 mmHg 55%

    20 Dezember, Mittwoch

    Zeit Temperatur Niederschläge Wind Luftdruck Luftfeuchtigkeit
    00:00 0°C° 0 mm 1 m/S 712 mmHg 56%
    01:00 0°C° 0 mm 1 m/S 712 mmHg 57%
    02:00 0°C° 0 mm 1 m/S 712 mmHg 58%
    03:00 0°C° 0 mm 1 m/S 711 mmHg 59%
    04:00 0°C° 0 mm 1 m/S 711 mmHg 60%
    05:00 0°C° 0 mm 1 m/S 711 mmHg 62%
    06:00 0°C° 0 mm 1 m/S 711 mmHg 63%
    07:00 -2°C° 0 mm 2 m/S 711 mmHg 65%
    08:00 -1°C° 0 mm 2 m/S 712 mmHg 61%
    09:00 +1°C° 0 mm 2 m/S 712 mmHg 57%
    10:00 +3°C° 0 mm 2 m/S 712 mmHg 53%
    11:00 +3°C° 0 mm 2 m/S 711 mmHg 52%
    12:00 +4°C° 0 mm 2 m/S 711 mmHg 50%
    13:00 +5°C° 0 mm 2 m/S 711 mmHg 49%
    14:00 +4°C° 0 mm 2 m/S 710 mmHg 54%
    15:00 +3°C° 0 mm 1 m/S 710 mmHg 58%
    16:00 +2°C° 0 mm 1 m/S 710 mmHg 63%
    17:00 +2°C° 0 mm 1 m/S 710 mmHg 65%
    18:00 +1°C° 0 mm 1 m/S 710 mmHg 67%
    19:00 -1°C° 0 mm 2 m/S 711 mmHg 69%
    20:00 -2°C° 0 mm 2 m/S 711 mmHg 70%
    21:00 -2°C° 0 mm 2 m/S 711 mmHg 70%
    22:00 -2°C° 0 mm 2 m/S 711 mmHg 70%
    23:00 -2°C° 0 mm 2 m/S 711 mmHg 70%
    Mehr zeigen